Terminal Aerodrome Forecast
Issued by NWS

Home | Current Version | Previous Version | Text Only | Print | Product List | Glossary On
Versions: 1 2 3 4 5 6 7 8 9 10 11 12 13 14 15 16 17 18 19 20 21 22 23 24
000
FTUS45 KBYZ 272320
TAFLVM
TAF
KLVM 272320Z 2800/2824 22024G40KT P6SM BKN070
     FM281200 24021G27KT 4SM -SN OVC040
     FM281800 33019G23KT 1/2SM SN OVC010=

USA.gov is the U.S. government's official web portal to all federal, state and local government web resources and services.